GFSFLT1_sfc_30mbdewp_042.txt.gz
Dewpoint
51 53 53 51 55 58 59 59 57 57 57 56 54 48 45 44 43 43 43 43 44 42 42 42 38 34 31 33 33 32 32 33
53 55 56 57 59 59 58 58 59 59 56 52 46 44 43 43 43 43 43 42 43 42 38 35 32 31 34 34 32 29 28 32
54 56 56 57 57 58 58 58 58 56 52 47 45 44 43 42 42 43 42 42 40 36 35 32 33 31 32 33 34 31 27 28
54 55 56 57 57 57 56 54 53 49 46 46 45 45 43 41 42 41 41 40 37 35 35 34 34 33 31 33 33 32 29 28
48 47 50 51 52 51 46 47 47 48 47 44 43 40 40 43 43 41 40 37 35 34 35 36 36 35 35 33 31 34 32 29
40 39 41 42 45 45 45 45 44 45 46 45 45 44 43 43 42 42 38 37 35 34 35 36 36 35 35 36 36 35 33 31
38 39 40 42 45 46 45 44 45 46 46 46 46 44 41 39 38 35 33 33 32 33 35 35 36 36 36 35 36 35 34 33
39 40 41 42 44 45 46 44 44 46 46 44 43 41 38 34 33 30 31 30 31 32 35 35 34 33 36 36 35 33 34 33
39 40 41 42 44 44 44 43 43 43 42 41 40 36 33 32 34 35 34 34 35 37 37 36 33 32 33 34 35 34 34 32
40 42 43 43 44 46 45 43 42 41 40 40 39 37 36 35 36 37 36 37 33 28 28 27 27 29 32 34 34 33 32 32
41 42 44 44 43 43 44 42 40 39 38 37 35 34 34 35 36 35 31 26 24 25 25 26 27 28 30 32 32 29 30 31
42 42 43 42 39 39 40 39 37 36 35 35 35 32 32 32 27 25 25 26 25 25 26 28 28 29 31 33 33 30 32 31
41 40 39 37 36 36 36 36 35 35 34 32 29 27 27 24 23 25 27 27 27 27 27 28 29 31 35 35 34 35 31 26
38 37 36 35 34 34 33 34 32 30 27 24 24 24 24 23 25 27 28 28 27 28 28 29 30 32 32 34 34 28 26 25
36 35 35 33 32 32 30 31 28 25 21 20 21 23 26 27 28 28 28 28 29 29 29 30 34 33 30 29 25 25 26 25
35 34 34 32 31 30 31 26 23 21 19 19 21 27 30 29 28 29 29 29 29 29 29 31 32 28 24 27 27 26 25 23
35 34 32 30 29 28 25 21 21 22 20 20 24 29 29 27 28 28 28 29 29 28 28 29 29 28 30 28 24 23 21 18
35 32 30 27 26 22 20 20 22 21 20 21 27 28 26 26 27 27 27 28 29 30 30 31 31 29 27 26 24 20 19 17
33 30 27 24 21 20 21 20 21 20 20 23 25 25 25 26 27 27 28 28 30 30 30 30 28 26 24 22 21 20 19 18

GFSFLT1_sfc_30mbdewp_045.txt.gz
Dewpoint
44 46 45 45 52 57 58 58 59 58 58 58 56 55 51 47 45 45 45 45 45 44 44 43 38 36 36 36 35 32 30 28
49 50 50 48 54 57 58 58 58 58 57 54 53 49 46 44 44 44 44 44 44 43 39 37 37 33 33 34 34 32 30 29
50 52 53 55 57 58 58 57 58 58 55 51 48 45 43 43 44 45 44 44 41 37 39 36 35 34 32 33 34 33 31 31
51 53 55 56 56 57 57 56 54 51 46 45 45 44 44 42 43 43 43 42 39 37 37 36 35 33 32 34 33 32 30 30
52 53 56 57 57 55 53 49 46 45 44 43 42 40 41 43 42 41 42 40 38 36 34 35 36 35 34 33 32 34 33 30
49 50 51 50 51 48 44 44 43 45 45 43 44 43 43 42 41 43 42 40 36 34 34 35 34 34 33 34 34 34 34 33
42 43 44 44 47 45 45 44 43 45 46 46 45 45 41 39 40 38 36 33 31 31 32 33 34 33 31 31 32 31 34 33
38 38 38 42 44 45 45 44 44 45 46 46 44 43 40 37 35 33 31 30 30 31 34 34 33 31 30 30 30 32 33 33
38 38 38 41 44 45 45 44 44 46 45 43 42 39 35 34 32 33 33 33 33 34 34 32 28 26 26 28 29 31 33 35
38 39 40 41 44 44 45 44 43 43 42 40 38 37 34 33 34 35 34 35 31 26 26 26 26 26 26 27 29 29 33 33
38 39 41 43 44 45 46 45 43 41 40 38 36 34 33 34 35 34 32 28 25 24 24 25 25 26 27 27 27 29 32 30
39 40 42 44 45 45 46 43 41 37 36 36 36 34 33 33 31 26 24 26 25 25 25 25 25 26 26 28 31 31 33 30
40 41 43 44 43 42 42 39 36 35 35 36 33 33 30 27 24 23 25 26 27 26 25 26 26 26 27 32 33 31 31 30
40 41 42 42 40 40 39 37 35 35 34 33 29 27 26 23 23 26 26 26 27 27 27 28 27 29 32 33 30 30 31 28
40 40 40 39 38 38 36 34 35 33 30 24 23 24 23 24 25 27 26 27 27 27 28 28 29 32 30 30 30 28 28 28
39 38 38 37 36 34 32 34 31 30 23 21 20 21 26 27 27 27 27 28 28 28 27 27 28 28 26 28 27 28 27 24
37 37 37 36 33 32 32 30 28 22 22 21 19 22 25 26 25 27 26 26 27 27 28 28 29 28 29 27 24 24 21 18
37 36 36 35 33 31 28 26 23 23 22 19 19 24 24 23 24 24 25 26 27 28 28 29 29 30 28 26 23 21 20 19
37 36 35 32 30 26 25 24 25 23 19 17 19 22 23 23 23 24 25 26 27 29 29 29 29 30 26 23 22 21 20 20

GFSFLT1_sfc_30mbdewp_048.txt.gz
Dewpoint
37 39 43 53 56 58 59 60 59 59 59 59 58 55 52 50 48 48 47 47 47 48 46 43 40 39 38 38 39 39 38 36
45 45 45 51 58 59 60 59 58 58 59 56 53 51 49 47 46 47 47 46 46 44 42 40 39 38 37 38 38 37 37 36
48 49 49 51 57 59 59 59 58 58 58 54 53 49 47 46 47 47 46 46 42 43 40 40 39 38 38 39 38 38 36 37
48 50 52 57 59 59 59 58 57 58 54 52 50 49 47 45 47 46 46 44 41 39 39 39 39 38 38 39 38 38 36 36
49 51 55 57 57 58 58 57 57 53 48 46 45 44 44 44 45 46 45 41 40 38 36 37 38 39 38 38 36 37 37 35
49 55 56 56 57 58 58 56 50 47 47 46 45 46 44 46 44 45 45 44 41 38 35 37 37 38 38 38 38 36 36 35
49 54 55 56 58 55 49 46 45 46 46 47 46 46 43 43 42 43 42 42 38 36 36 38 38 38 37 36 35 35 35 36
47 48 49 49 48 48 47 45 45 46 47 47 47 45 43 40 38 38 35 34 35 37 38 37 36 33 32 33 33 34 35 35
43 44 43 46 47 47 46 45 45 46 48 47 45 43 41 38 35 35 36 36 37 37 34 32 31 31 31 32 32 33 33 36
40 40 41 43 46 47 47 45 46 47 47 45 42 39 36 35 35 36 37 37 32 31 29 30 30 30 31 32 32 32 35 34
40 39 41 43 45 47 48 47 45 45 44 42 39 38 35 36 36 36 34 30 28 28 29 29 29 29 30 30 31 34 33 34
40 40 41 43 45 46 48 47 44 43 42 39 38 35 37 35 35 30 27 27 28 28 28 29 28 29 30 31 34 32 31 32
40 40 42 43 46 47 47 47 42 40 38 37 36 38 37 33 30 26 26 28 29 28 29 29 30 30 31 33 33 33 32 33
40 40 43 44 45 44 45 43 41 37 36 36 37 37 30 28 25 26 28 28 29 29 29 30 30 31 31 31 31 32 33 30
39 40 42 44 44 42 42 40 37 37 36 35 30 28 26 26 26 28 29 29 30 30 30 30 30 29 28 29 30 30 30 29
36 40 42 42 41 40 39 37 37 35 33 29 26 23 26 28 28 29 29 30 29 30 29 30 30 29 27 28 28 27 27 25
37 39 40 40 39 38 35 35 34 33 26 25 25 22 24 27 28 28 28 29 29 29 30 30 30 28 29 27 24 24 23 22
36 38 38 39 37 36 34 33 30 25 27 28 23 22 25 26 26 25 26 27 29 29 30 30 30 30 30 26 22 22 22 23
35 38 38 37 35 34 32 28 26 29 28 22 19 21 24 25 25 25 26 28 28 30 29 30 31 30 30 26 22 21 23 23

GFSFLT1_sfc_30mbdewp_051.txt.gz
Dewpoint
44 48 50 53 54 58 57 58 57 57 57 57 57 55 53 50 48 47 47 47 48 48 45 40 41 38 38 39 38 37 37 36
39 47 53 55 58 59 58 57 57 57 58 57 56 52 49 47 47 47 47 47 45 44 43 41 39 37 39 39 38 36 37 38
42 47 55 57 58 59 58 58 57 57 58 57 53 50 48 47 47 48 47 45 44 41 40 39 38 37 37 38 37 38 37 36
47 49 55 58 59 59 58 58 57 57 59 55 52 49 48 47 46 47 46 43 41 41 40 39 38 38 37 38 37 35 36 36
48 50 57 59 59 59 59 58 57 57 58 53 50 46 45 45 46 46 45 43 40 39 37 38 37 38 37 38 38 37 35 33
49 53 57 58 59 58 58 57 57 57 51 50 47 45 45 46 47 46 44 42 40 38 37 38 38 38 39 36 34 34 35 34
52 55 56 57 57 57 57 57 57 50 47 47 45 45 46 45 45 45 44 44 43 39 38 37 38 35 32 32 33 32 33 34
55 55 55 56 56 57 57 55 49 46 47 48 47 44 43 42 42 40 35 35 38 37 36 35 33 31 31 31 31 31 31 32
53 55 55 56 55 53 50 46 46 46 47 47 45 42 39 38 37 37 37 38 38 31 30 30 30 30 31 31 31 31 32 35
47 48 50 49 47 47 46 46 46 47 48 45 42 38 36 35 36 38 37 33 30 29 29 28 29 30 30 30 31 31 33 33
44 44 46 46 46 47 47 47 47 48 46 42 39 37 36 37 37 36 34 30 29 29 29 29 29 29 30 30 33 34 32 31
41 41 44 46 46 47 46 47 47 45 42 41 37 36 37 37 36 34 28 28 29 29 29 29 29 30 32 33 33 33 32 32
41 40 43 45 46 47 47 47 44 42 39 38 38 38 38 37 36 28 29 29 30 30 30 29 31 31 32 32 31 32 32 32
41 41 41 45 46 48 48 43 39 39 38 37 37 37 37 34 29 29 30 29 30 30 30 30 30 31 29 30 31 33 31 31
41 40 42 46 47 47 45 39 38 38 38 37 36 36 34 29 29 30 30 30 29 30 30 30 32 29 29 30 30 29 30 29
40 42 46 46 46 44 39 38 37 37 35 32 27 27 29 29 30 30 30 29 29 31 30 32 31 29 27 27 27 27 25 24
41 45 45 44 43 39 37 37 35 35 30 29 26 26 28 28 28 27 28 30 29 29 31 31 30 29 29 28 25 23 23 22
38 41 42 41 38 36 36 35 32 31 30 27 25 26 26 26 26 26 26 28 28 30 30 30 30 30 30 29 24 21 21 22
38 39 37 36 35 35 30 30 30 29 27 22 23 25 25 25 26 28 27 28 28 31 29 29 29 30 31 30 25 21 22 23

GFSFLT1_sfc_30mbdewp_054.txt.gz
Dewpoint
49 47 50 52 53 57 56 56 56 56 55 55 54 54 53 51 49 48 48 48 48 45 41 41 39 38 39 38 36 37 37 36
46 48 50 52 56 57 56 56 56 55 55 54 53 51 50 48 47 47 48 48 48 43 41 40 38 38 38 37 37 37 36 37
47 49 50 52 57 57 56 56 55 55 56 56 55 52 49 47 47 47 48 45 43 41 39 38 37 38 37 37 37 37 36 37
48 51 52 56 58 57 56 56 56 55 56 56 52 49 47 47 47 47 46 43 42 41 39 38 38 37 36 38 37 35 34 35
50 52 55 56 58 58 57 57 56 56 58 56 50 47 45 46 46 46 44 42 41 40 39 39 38 38 38 38 37 36 34 31
50 54 56 58 58 58 58 57 57 57 58 55 50 46 46 46 47 46 44 42 41 39 39 39 38 39 36 32 32 32 34 32
50 56 58 58 58 58 58 58 57 57 57 53 50 46 46 46 46 45 44 44 42 40 38 38 36 33 31 32 32 31 30 31
53 56 57 58 58 58 58 57 57 55 54 51 49 46 46 46 46 45 43 39 38 37 36 33 32 31 31 31 30 30 30 32
53 55 56 57 57 57 57 57 54 50 49 48 47 45 44 44 43 40 39 39 36 32 31 30 30 31 31 31 30 32 34 34
54 55 55 56 56 56 56 53 51 47 48 45 41 40 39 39 40 39 37 34 32 31 30 30 30 29 30 31 32 33 33 32
53 54 54 53 53 51 50 49 47 48 45 42 39 38 39 40 40 40 36 34 32 32 29 29 29 30 32 33 34 33 32 32
49 51 52 51 49 47 46 46 47 48 43 40 38 40 40 40 39 36 32 33 31 30 30 29 29 31 33 33 32 32 32 32
46 47 49 47 46 46 47 46 47 44 39 39 41 40 41 41 37 34 34 31 31 30 30 29 30 30 32 32 30 30 32 32
42 43 46 46 46 46 47 44 40 39 40 40 40 39 40 39 38 35 35 31 30 30 30 30 30 31 30 30 31 32 32 31
42 41 43 45 46 46 43 42 42 42 41 40 39 40 39 36 33 31 30 30 29 29 30 30 32 30 30 29 29 29 28 28
43 42 44 46 47 43 42 42 41 42 39 36 37 32 31 32 32 30 30 30 29 30 30 32 30 29 28 28 27 27 26 24
40 45 47 47 45 42 42 41 39 37 31 29 30 32 32 33 31 28 28 29 29 30 30 31 30 29 29 29 28 26 24 22
45 46 46 45 42 42 40 36 32 29 28 29 31 31 29 28 27 28 27 27 29 29 31 31 30 30 30 30 29 25 22 22
40 39 37 37 36 33 32 32 31 28 27 28 27 27 28 29 31 28 29 28 27 29 31 30 30 30 31 31 31 25 22 22

GFSFLT1_sfc_30mbdewp_057.txt.gz
Dewpoint
53 57 55 54 54 57 57 57 56 56 56 56 55 54 53 51 51 50 49 48 45 42 42 40 39 39 38 36 35 38 37 35
54 56 53 53 55 57 56 56 55 55 54 53 52 51 50 49 48 48 48 48 44 41 40 38 39 37 36 36 37 36 36 37
52 52 50 52 55 56 56 56 55 54 54 54 53 51 49 48 47 47 48 48 44 41 39 37 39 38 37 37 37 36 36 36
48 47 50 52 55 56 56 55 55 54 55 54 52 48 47 46 46 47 47 45 43 40 39 38 37 37 36 37 36 34 32 34
45 47 49 51 54 56 56 56 55 55 56 53 51 49 46 46 45 47 46 44 42 40 39 39 38 38 38 37 37 35 33 29
45 47 49 52 56 56 57 56 56 56 56 55 51 49 46 46 46 46 45 43 43 41 40 39 39 39 35 32 32 31 33 31
45 49 51 54 57 57 57 56 56 56 57 55 52 49 46 45 46 46 44 43 41 39 39 38 35 32 31 31 31 31 30 31
48 52 54 56 57 57 57 57 56 57 57 55 53 50 46 45 46 45 44 41 39 38 36 35 36 32 32 31 30 30 31 31
52 54 56 56 57 57 58 57 57 57 56 55 53 50 47 46 46 45 41 39 36 36 39 35 32 32 30 30 31 31 33 33
51 55 56 57 57 57 57 57 57 54 54 52 50 47 45 43 42 40 37 38 41 41 33 33 33 30 30 31 31 33 33 32
53 55 56 57 57 57 57 57 55 52 50 47 45 43 41 40 40 40 40 40 40 36 34 35 31 31 32 33 33 33 32 32
53 54 55 56 56 55 55 53 52 49 45 41 40 41 41 41 40 40 42 40 38 38 39 35 33 31 33 33 32 32 31 31
52 53 54 53 53 52 52 51 49 47 41 40 41 41 42 42 42 40 39 40 40 38 36 32 30 31 33 32 30 30 30 30
49 51 52 52 51 49 48 46 43 41 41 41 42 44 43 39 38 40 39 38 38 35 31 30 30 31 31 30 30 30 32 32
44 46 49 50 49 47 44 41 40 40 41 42 43 42 42 41 40 38 37 35 32 30 30 30 32 31 30 29 30 30 29 29
43 43 45 47 46 44 43 43 43 43 43 43 43 43 41 37 35 32 32 32 30 30 31 32 31 30 29 28 28 28 27 26
44 44 44 46 45 43 44 44 44 44 42 39 36 34 33 33 34 32 30 29 29 32 31 30 30 30 29 29 28 27 27 26
45 46 47 44 43 43 43 41 35 34 34 34 34 34 31 29 28 30 32 32 31 29 29 31 30 30 30 30 30 28 27 25
39 40 40 39 36 33 32 32 32 32 32 30 28 29 31 35 38 38 33 29 28 28 28 30 30 30 31 31 31 30 26 24

GFSFLT1_sfc_30mbdewp_063.txt.gz
Dewpoint
52 54 54 56 57 57 59 60 60 59 59 58 59 60 59 59 59 58 55 52 50 46 44 43 41 40 39 38 38 39 37 36
53 53 54 54 56 57 58 59 59 58 57 57 57 58 57 56 56 55 52 49 48 46 43 42 41 40 39 40 40 38 36 37
53 54 55 54 54 56 57 58 57 57 56 56 57 56 55 55 54 53 51 49 47 45 43 41 41 40 40 40 39 37 37 37
53 53 54 55 54 55 56 57 57 57 57 56 53 52 51 51 52 50 49 47 45 43 43 42 42 41 39 40 39 37 34 35
53 53 54 55 55 56 56 57 57 57 57 55 54 54 52 51 51 49 48 46 44 43 42 42 42 40 40 40 38 37 33 28
53 53 54 55 55 56 57 56 56 56 56 56 55 54 53 52 50 48 48 48 45 42 42 42 41 40 41 39 37 36 35 34
51 52 53 53 55 56 56 56 56 56 56 56 54 53 51 50 49 48 47 46 44 42 41 41 41 40 37 35 36 34 35 34
48 48 50 51 53 55 56 56 55 56 56 55 54 53 52 51 50 48 46 44 43 42 41 40 38 38 38 37 35 33 32 32
46 46 48 50 52 54 55 55 55 56 56 56 55 54 53 52 49 48 47 45 43 42 40 39 40 40 37 37 34 35 35 35
41 43 47 49 51 53 55 55 55 56 56 56 56 56 54 52 49 49 47 44 42 40 40 41 40 40 38 35 37 35 34 36
39 41 46 50 52 52 55 55 55 56 56 56 56 56 54 52 50 48 46 42 41 41 41 41 43 39 38 38 35 34 34 34
43 45 49 51 53 54 55 55 55 56 56 57 56 56 54 51 49 47 43 42 42 41 43 43 39 39 37 35 34 34 34 34
47 49 52 54 54 55 55 56 56 57 56 56 55 52 49 47 45 44 44 42 43 43 41 40 39 37 37 35 33 32 33 33
49 51 52 54 55 56 56 55 56 54 51 49 47 46 45 45 44 44 44 44 43 42 41 39 38 38 36 34 33 33 33 32
47 50 52 53 54 54 55 53 51 47 47 46 46 45 44 44 44 44 44 43 40 40 41 41 38 36 33 33 32 33 32 32
45 47 50 51 51 49 48 48 47 47 46 45 45 45 45 44 43 42 41 41 41 41 38 35 35 35 33 33 32 32 31 31
44 45 48 49 47 46 45 46 46 46 45 44 44 43 42 41 41 41 40 36 34 36 36 35 35 35 32 31 31 31 30 29
44 44 46 46 45 45 45 44 44 43 43 42 40 39 39 38 36 35 36 39 40 40 38 36 34 33 32 31 31 31 30 30
40 40 40 40 40 41 41 39 39 38 36 35 35 35 37 39 40 39 39 40 38 35 32 31 31 30 30 31 32 32 31 31

GFSFLT1_sfc_30mbdewp_066.txt.gz
Dewpoint
52 53 51 51 52 52 54 56 58 59 60 58 54 53 54 58 61 61 60 59 57 54 49 47 45 43 42 38 37 36 35 35
51 53 53 50 51 53 54 55 57 60 59 54 52 53 56 59 61 60 59 57 56 52 48 47 45 43 40 41 39 38 37 37
49 50 52 53 54 55 55 56 58 59 56 54 52 53 54 57 60 59 58 56 54 51 48 46 45 42 42 41 39 38 38 37
50 49 51 52 52 54 55 56 57 58 56 54 53 55 56 57 58 58 57 54 52 49 47 46 44 42 42 41 41 39 37 37
48 50 51 52 52 52 55 56 57 58 57 54 52 52 52 54 57 57 54 52 50 47 47 46 44 42 42 41 41 39 36 34
47 48 50 52 52 53 53 54 56 58 58 56 55 54 53 55 56 55 53 50 48 46 45 45 44 43 43 41 40 38 36 35
47 48 48 50 54 55 55 54 55 57 59 58 57 56 56 56 55 53 52 51 46 45 43 44 44 43 43 41 40 37 37 34
47 47 49 48 51 55 56 55 54 56 58 58 58 57 57 56 54 53 51 50 48 46 45 44 44 43 42 39 39 38 36 36
44 48 48 50 50 54 55 55 55 56 57 57 58 58 57 57 54 53 51 49 49 48 46 44 43 42 40 40 40 38 37 37
41 44 48 49 51 52 54 54 54 55 57 57 57 57 56 55 55 53 51 50 49 47 45 44 42 42 41 42 40 37 37 36
37 40 44 47 50 52 54 54 53 53 56 57 57 57 57 56 56 52 51 52 49 46 45 43 42 44 43 39 39 37 36 35
40 40 40 44 48 50 52 54 52 53 54 56 57 56 57 57 56 53 52 50 47 45 44 43 44 42 41 40 36 36 34 32
44 44 45 46 48 49 50 52 52 52 54 56 56 57 56 53 51 49 48 46 44 44 45 43 43 40 39 39 39 34 32 30
44 47 49 50 51 51 52 54 54 55 56 56 52 50 49 48 46 46 44 44 44 44 43 41 40 40 41 40 37 32 32 30
41 46 48 51 53 55 56 55 55 53 52 49 48 47 46 46 46 45 45 45 43 42 41 41 43 42 38 36 32 31 31 30
38 45 50 52 53 54 54 52 49 49 48 47 47 46 46 45 45 43 43 42 42 42 42 41 41 37 34 34 33 32 31 30
41 45 50 51 51 50 51 50 49 48 47 46 45 44 44 44 42 41 41 40 38 38 37 37 36 36 36 35 33 32 30 28
45 47 48 48 48 48 48 48 48 46 44 44 43 43 42 40 37 36 35 37 38 38 39 40 38 35 33 33 32 31 29 28
43 44 45 46 46 45 45 44 44 43 42 42 41 39 37 37 39 39 40 39 39 38 34 31 30 28 29 29 31 30 28 27

GFSFLT1_sfc_30mbdewp_069.txt.gz
Dewpoint
49 49 48 46 50 49 50 54 57 58 58 55 52 52 51 51 54 57 59 60 60 58 54 52 51 47 46 45 42 38 37 37
50 48 49 46 48 48 50 54 56 57 56 53 49 47 48 50 56 59 60 60 59 58 53 52 50 48 47 44 42 40 39 40
49 50 49 49 50 50 50 51 54 55 53 51 47 47 47 50 58 60 60 59 58 57 53 51 50 48 47 45 42 40 41 40
46 48 50 49 49 51 51 51 51 53 52 51 49 49 49 50 56 58 59 58 57 56 53 51 50 48 46 45 43 41 40 40
45 45 47 50 50 51 53 52 51 53 54 51 50 48 48 49 54 57 57 57 57 54 52 51 50 49 46 45 43 43 42 40
43 46 45 47 50 51 53 52 52 53 56 53 51 50 50 51 54 57 58 56 55 54 52 51 51 49 46 46 43 44 42 39
41 42 46 47 51 53 52 52 53 53 55 56 54 53 52 50 55 56 56 55 54 54 53 51 50 47 46 46 44 44 40 39
42 40 41 44 48 51 53 52 51 53 55 56 57 56 55 54 56 55 56 54 53 52 52 50 49 47 46 45 45 42 40 39
41 42 43 43 45 50 53 52 52 51 55 57 58 58 57 58 58 56 56 54 54 52 50 49 49 48 46 46 43 42 40 40
35 41 43 45 46 48 54 53 53 52 54 57 58 58 58 58 59 57 56 55 53 52 51 50 49 47 45 43 42 42 41 41
37 37 41 45 47 49 52 53 51 52 54 57 57 58 58 58 57 56 55 54 52 52 52 52 49 44 44 44 43 43 40 39
36 37 40 44 47 49 52 53 53 51 53 56 57 57 57 57 57 57 56 54 54 52 50 45 44 44 43 43 41 38 38 39
38 40 40 41 45 48 50 53 53 52 52 54 57 57 57 57 57 53 51 47 46 45 44 44 44 43 42 40 39 41 40 39
36 41 43 44 45 47 49 51 52 51 52 56 56 54 52 50 47 46 45 45 45 45 44 43 42 41 40 41 42 40 38 37
32 38 43 47 49 49 50 55 56 56 54 53 50 49 48 47 46 45 46 46 45 44 43 42 41 42 42 41 39 39 37 34
31 37 43 47 52 54 55 52 52 51 49 49 48 47 47 46 45 45 44 44 43 42 41 42 43 42 40 38 36 36 35 33
32 37 46 50 53 54 51 50 49 49 48 47 47 46 45 44 44 44 42 42 42 42 41 41 40 38 35 35 36 34 32 31
41 44 50 51 51 51 50 49 48 47 46 46 45 45 44 42 41 40 39 38 38 38 39 39 38 38 37 34 32 29 28 27
45 47 48 49 49 49 49 47 46 45 44 44 43 42 39 38 37 37 38 39 39 39 39 35 31 29 28 28 29 27 25 24

GFSFLT1_sfc_30mbdewp_072.txt.gz
Dewpoint
53 53 53 54 54 54 53 53 53 53 53 57 56 55 53 53 55 57 59 60 60 59 56 55 54 52 50 48 47 44 41 40
49 50 53 53 54 53 52 52 53 56 56 55 53 53 52 52 55 58 60 61 60 60 59 56 53 51 49 50 48 42 41 42
48 47 50 51 51 51 51 52 56 58 58 56 53 52 52 51 55 58 60 61 61 60 59 55 53 52 52 48 45 43 44 44
48 48 47 50 50 50 51 54 57 57 57 54 51 51 50 50 58 60 60 61 60 59 58 55 54 53 51 49 48 45 43 43
48 49 49 48 49 50 52 52 55 56 55 52 50 48 48 50 57 59 60 60 59 58 57 56 54 53 51 50 48 46 46 43
47 48 50 50 51 53 53 52 52 52 54 54 52 50 50 50 52 58 59 59 58 57 57 55 54 53 52 50 47 47 48 42
44 47 48 51 52 53 54 54 53 53 55 53 55 52 52 52 56 57 58 58 58 57 56 55 55 54 51 50 49 48 42 42
45 46 46 47 50 53 54 55 53 53 57 56 56 57 54 54 56 57 58 57 56 56 55 54 54 53 51 50 50 47 42 39
41 41 47 47 48 52 53 53 53 53 55 57 58 57 57 56 57 58 57 57 56 55 55 54 53 52 51 51 48 44 42 42
39 42 42 46 48 52 54 53 53 53 55 57 58 59 58 58 59 59 58 57 56 55 54 53 52 51 49 47 45 43 43 42
36 38 44 44 47 50 54 54 53 54 54 56 58 59 60 59 60 59 57 57 54 54 52 51 49 48 47 45 44 43 42 42
35 37 39 46 47 48 53 55 54 54 54 56 58 59 59 59 58 58 57 56 54 53 50 47 45 44 43 43 43 42 41 40
36 37 38 40 46 49 52 54 54 54 53 57 58 59 58 58 58 56 54 53 50 48 46 44 43 43 43 43 42 41 40 40
34 39 40 40 42 46 50 54 55 55 55 58 58 56 54 52 50 49 49 48 46 45 44 44 43 43 42 42 41 41 42 41
30 38 41 43 45 47 49 55 56 56 56 54 52 50 49 48 47 47 46 46 45 44 44 43 42 41 41 41 42 42 41 40
25 30 42 46 50 56 55 54 53 53 51 49 48 47 47 46 46 46 46 45 44 43 42 42 41 42 42 42 41 40 38 38
32 29 45 50 55 53 51 50 50 49 48 47 47 46 46 45 45 44 43 43 42 41 41 42 42 41 39 38 35 36 35 33
39 38 51 54 52 51 49 49 48 47 46 46 46 45 44 44 43 43 42 42 42 40 40 40 39 39 37 36 34 31 29 29
42 49 52 52 51 50 48 47 47 46 46 46 45 44 42 41 40 39 39 38 38 40 40 40 39 32 31 30 28 29 29 30

GFSFLT1_sfc_30mbdewp_075.txt.gz
Dewpoint
54 54 53 53 53 53 52 51 50 51 52 51 51 51 52 49 52 54 56 56 57 58 56 53 53 51 50 49 47 47 41 38
54 53 54 54 54 53 52 50 51 53 52 51 52 54 54 53 54 55 57 59 59 58 56 54 53 52 50 49 48 44 42 42
52 53 53 53 53 53 52 51 51 53 52 53 53 54 53 53 55 58 59 59 60 59 58 57 55 52 50 48 47 43 41 42
52 52 52 53 53 52 51 50 51 52 53 55 54 53 53 52 53 57 59 60 60 60 59 57 54 52 51 49 46 42 40 45
51 52 51 52 52 52 50 50 51 52 56 56 54 51 50 50 53 56 59 60 60 60 59 58 54 53 52 50 47 45 43 42
46 49 50 48 49 49 50 51 52 57 57 56 55 51 50 50 55 57 58 60 60 59 59 57 56 53 53 51 49 47 48 45
48 47 49 46 49 49 50 50 53 56 57 56 54 51 49 49 55 58 58 59 59 59 58 57 56 55 54 53 52 49 48 45
48 48 48 48 48 48 49 51 52 55 55 55 54 52 51 49 52 58 58 57 57 57 57 56 55 55 55 53 51 50 45 45
47 48 49 49 49 50 51 52 52 52 55 54 56 53 51 53 55 57 58 57 57 57 56 55 55 54 53 52 50 47 46 45
44 47 48 50 50 50 51 54 53 53 55 56 55 57 54 53 54 57 58 58 56 56 55 54 53 52 51 48 47 46 45 45
45 45 47 47 49 51 52 53 54 54 53 57 57 56 57 58 56 58 58 57 56 55 54 53 50 49 48 47 45 44 43 43
35 39 44 47 47 48 52 53 53 53 53 54 57 58 58 59 59 58 57 56 55 53 52 50 48 46 45 44 43 43 42 42
35 36 41 47 49 50 51 54 54 55 55 55 56 58 59 59 58 57 56 54 52 50 49 47 46 45 44 43 43 43 42 41
36 37 38 42 48 50 52 55 56 53 56 56 58 57 56 56 54 53 52 50 49 48 46 45 44 43 43 43 42 42 41 41
38 39 39 42 52 55 55 56 56 56 55 55 53 52 51 50 49 49 49 48 46 45 45 44 43 43 43 42 41 41 42 42
30 39 42 52 53 53 52 52 51 51 50 49 48 48 48 48 47 46 46 45 45 44 43 43 42 42 41 41 42 42 41 40
36 41 51 53 52 52 50 50 49 49 48 47 47 47 46 45 45 45 45 44 43 43 42 42 41 42 42 41 40 37 35 32
40 51 54 52 51 50 49 49 48 47 47 46 46 45 45 45 44 44 43 42 42 41 41 41 41 40 39 39 35 34 29 28
51 53 52 50 49 48 48 48 47 46 46 45 45 44 43 43 43 42 42 41 40 39 39 39 38 35 34 30 28 30 29 27

GFSFLT1_sfc_30mbdewp_078.txt.gz
Dewpoint
53 54 53 54 54 54 53 53 52 52 52 50 49 49 49 49 52 53 55 57 57 57 56 54 53 52 51 49 47 46 43 38
53 53 53 53 53 52 51 51 52 52 51 49 46 44 47 49 49 53 54 55 57 57 56 54 53 51 50 49 47 46 44 41
52 53 51 51 52 52 51 50 51 51 50 48 46 48 52 52 50 51 55 56 57 57 56 54 53 52 50 49 48 45 44 43
51 52 52 51 51 52 51 50 50 51 50 49 52 53 53 52 52 52 55 57 59 58 57 56 54 53 51 50 48 45 43 43
52 52 52 52 52 53 52 51 49 50 51 50 50 50 48 50 50 52 56 58 59 59 59 58 56 55 53 50 49 46 43 42
51 51 51 52 52 52 51 50 50 50 51 50 51 52 52 52 52 53 57 58 59 59 59 58 57 55 54 52 50 48 46 45
51 51 51 51 51 52 50 50 49 50 50 52 54 53 53 51 51 52 55 58 59 59 59 59 58 56 54 53 51 50 49 49
50 51 50 49 49 50 50 49 49 50 52 54 56 56 54 51 51 52 54 56 57 58 59 59 57 56 55 54 52 52 50 48
47 50 50 46 47 48 48 48 49 50 51 56 57 56 55 53 51 54 55 56 57 58 59 58 56 55 54 54 51 49 47 47
47 47 49 49 44 46 48 49 50 50 51 55 57 57 55 53 52 53 57 57 57 58 58 56 55 54 53 50 48 47 48 47
47 48 48 49 49 47 48 49 49 50 52 54 55 56 56 54 54 54 56 57 57 57 56 55 54 52 50 49 48 47 46 45
45 46 48 49 50 50 50 51 51 52 53 55 55 55 56 56 55 56 57 57 56 56 56 54 51 50 48 47 47 46 45 44
45 46 46 48 50 51 51 51 53 53 54 54 56 57 56 57 58 57 57 57 57 56 53 52 50 48 46 46 45 44 43 43
36 39 43 46 48 49 50 53 54 54 55 55 55 57 58 57 58 57 58 57 54 52 51 49 47 46 45 44 44 43 43 43
35 38 42 45 48 49 50 52 55 55 54 55 55 55 56 56 54 54 53 52 50 48 48 46 45 44 44 43 43 42 42 41
35 38 44 51 52 53 53 54 54 54 53 52 51 50 50 50 49 49 48 48 47 46 45 44 44 43 43 42 42 41 41 41
33 36 50 52 52 51 51 51 51 51 50 49 48 48 48 47 47 46 46 45 44 44 43 43 42 41 41 41 42 41 38 34
38 41 50 52 51 51 50 49 49 49 48 48 47 47 46 45 45 45 44 44 43 43 42 42 41 41 41 40 37 34 29 28
48 52 51 50 49 49 49 48 48 47 47 47 46 46 45 44 44 43 43 43 42 42 41 41 40 38 39 36 31 29 27 26

GFSFLT1_sfc_30mbdewp_081.txt.gz
Dewpoint
53 54 54 54 55 55 55 54 54 53 54 51 51 51 52 54 56 55 56 55 55 53 52 52 53 51 51 49 47 46 42 39
52 54 54 54 53 53 54 53 53 52 52 52 51 52 50 51 53 55 56 57 56 55 55 54 53 52 50 49 47 45 43 40
52 51 53 53 53 52 52 52 51 52 51 50 51 51 51 50 50 52 54 55 56 56 56 54 53 52 51 49 47 46 45 42
49 50 50 51 51 52 51 51 51 51 50 49 49 49 50 49 50 50 53 54 56 57 56 55 53 52 50 49 48 46 45 43
50 50 49 50 50 52 51 50 51 51 51 49 48 46 44 42 44 48 52 55 57 57 57 56 54 53 51 50 50 48 46 43
51 51 51 51 51 51 52 51 50 50 51 49 49 47 46 46 48 49 50 53 56 57 58 57 56 55 54 52 51 49 47 46
50 51 52 52 52 52 52 51 50 49 50 50 49 49 48 49 50 50 50 52 54 57 58 58 57 56 55 54 53 50 48 47
50 50 50 51 51 52 52 51 49 49 49 50 49 50 51 51 51 51 51 52 55 57 58 58 58 57 56 54 54 52 50 48
50 50 50 50 50 51 51 50 49 49 49 49 50 51 52 53 52 52 52 53 54 56 58 58 58 58 56 55 54 51 50 49
50 50 51 49 49 49 49 49 48 48 49 49 50 51 52 53 54 53 53 53 54 56 57 58 58 57 55 54 52 50 49 49
48 49 51 50 49 48 49 48 48 48 48 49 49 52 55 56 56 55 53 55 57 57 57 56 55 55 54 52 51 49 49 48
47 48 48 50 50 47 48 48 48 48 49 50 51 52 55 57 56 55 54 57 57 57 56 55 55 54 52 51 49 48 47 46
46 47 48 48 49 49 47 48 48 49 50 51 51 53 55 56 56 55 56 56 57 57 56 55 54 52 50 49 48 47 46 45
44 46 47 48 49 49 50 49 49 50 51 51 54 55 56 56 56 55 56 56 56 57 56 53 52 50 49 47 47 46 45 45
42 45 46 46 48 50 50 50 51 52 52 53 54 55 56 56 56 57 56 57 56 56 54 52 50 48 47 46 45 44 44 43
35 37 41 44 46 48 50 51 52 53 53 54 54 54 54 54 55 54 53 53 51 51 49 47 46 46 45 45 44 43 42 42
35 37 39 45 48 49 51 51 52 53 53 51 50 51 51 50 49 49 49 47 47 46 46 45 44 44 44 43 43 42 41 40
32 36 40 47 50 52 52 51 51 51 49 49 49 48 48 47 47 46 46 45 45 44 43 43 43 42 42 42 40 36 33 30
35 40 49 50 51 50 49 49 50 49 49 48 48 47 46 46 45 45 44 43 43 43 43 43 42 41 40 36 32 29 27 25

GFSFLT1_sfc_30mbdewp_084.txt.gz
Dewpoint
54 54 55 55 55 56 55 54 55 55 54 54 56 55 56 57 55 55 54 53 52 51 51 51 50 50 49 47 45 44 40 37
53 54 54 54 55 55 54 54 54 54 53 54 53 53 54 55 55 55 55 54 54 52 51 52 52 49 50 48 47 45 43 40
51 53 53 53 53 54 54 53 53 54 54 55 55 52 52 53 54 55 56 55 54 53 52 52 52 51 50 49 47 46 44 40
49 50 52 53 52 52 53 52 52 53 54 52 50 50 51 51 52 53 55 56 56 56 56 54 53 53 51 50 48 47 45 43
50 50 50 51 52 52 52 52 51 51 52 51 48 50 49 49 49 50 51 54 56 57 56 55 54 53 52 51 50 48 46 45
49 50 50 50 50 52 51 51 51 51 50 50 48 48 48 45 46 46 49 52 54 55 56 55 55 54 53 51 50 48 47 46
49 50 51 50 50 51 51 50 50 51 50 50 48 47 46 46 46 46 48 50 52 54 56 56 56 55 54 53 51 50 49 48
49 50 51 51 50 50 50 51 50 50 50 50 49 49 48 47 47 47 47 48 50 53 55 56 56 56 56 55 53 52 51 49
49 50 51 51 51 50 50 51 50 50 50 50 50 49 49 49 49 49 49 49 50 53 56 57 57 57 57 56 55 54 54 52
49 50 50 50 51 51 51 51 50 50 49 49 50 50 49 49 50 51 52 52 53 53 55 56 57 57 57 56 55 54 53 52
49 50 50 50 50 50 51 51 50 49 49 49 49 49 50 51 52 53 53 53 53 54 55 56 56 56 56 55 54 53 52 51
48 50 51 51 50 50 50 50 49 48 48 49 48 49 50 50 51 53 54 55 54 55 56 56 56 56 54 54 53 52 52 51
47 48 49 51 50 49 49 49 49 48 48 48 49 49 49 51 53 54 55 55 55 55 56 56 56 56 54 53 51 51 50 48
45 47 48 49 50 50 49 49 49 49 49 48 49 50 51 51 53 55 56 55 55 56 56 56 56 54 52 51 50 49 48 48
43 45 46 48 49 49 50 48 48 49 49 49 49 51 52 53 55 55 56 55 55 55 56 56 56 52 51 49 48 47 47 46
37 42 44 46 48 49 50 50 50 49 49 49 50 51 53 54 54 55 55 55 55 56 55 53 51 50 49 48 47 46 45 44
31 35 41 44 46 47 49 50 51 51 51 51 52 53 53 53 53 52 53 52 51 51 50 49 47 47 46 46 45 44 43 41
27 32 35 39 45 48 49 50 52 52 51 51 51 51 51 50 50 50 49 48 47 46 45 45 44 43 43 43 43 41 38 35
28 33 42 48 50 50 50 51 51 50 49 49 49 49 49 48 47 47 45 45 44 43 43 43 42 40 38 36 34 31 29 28

GFSFLT1_sfc_30mbdewp_087.txt.gz
Dewpoint
53 53 55 55 56 56 56 56 56 56 56 57 58 57 58 58 57 56 55 54 53 53 51 51 51 50 48 46 43 44 40 38
52 54 55 55 56 55 55 55 55 55 55 56 55 55 57 56 56 56 55 54 53 52 52 51 51 51 50 49 48 45 43 41
51 53 54 54 55 55 54 54 54 54 55 55 54 54 55 55 56 55 55 54 53 53 52 51 51 51 52 50 49 47 47 43
49 50 52 53 54 54 54 54 54 55 55 55 54 52 53 53 54 55 55 55 54 52 53 52 53 51 50 52 51 49 48 45
48 49 51 52 53 54 54 53 53 55 55 54 53 50 51 52 52 54 55 55 54 53 53 53 53 53 52 52 52 51 50 48
48 49 50 50 52 52 53 52 52 53 54 53 53 50 50 53 53 53 54 55 55 55 55 56 56 55 55 55 54 53 52 51
48 50 50 50 51 52 52 52 52 51 53 53 51 52 50 49 51 50 51 53 54 56 57 57 57 56 56 56 55 54 53 52
48 48 49 50 50 50 51 51 51 51 51 51 51 50 50 49 49 48 49 50 51 52 55 56 56 56 56 56 56 55 54 53
48 48 49 50 50 50 50 51 51 52 51 51 51 50 50 49 49 48 48 48 49 51 53 54 55 55 56 56 57 57 56 55
48 49 50 50 50 50 50 50 51 52 51 51 51 51 50 49 49 50 50 51 51 52 53 54 55 56 56 57 57 57 57 56
48 49 50 50 50 50 51 51 51 51 52 52 51 51 51 51 51 50 50 51 52 52 53 54 54 56 57 57 57 57 56 55
48 49 50 50 51 51 52 52 51 51 51 51 52 51 52 52 52 52 52 52 53 53 52 53 54 55 56 56 56 56 54 54
48 49 50 50 50 50 51 51 51 51 50 50 51 51 51 52 52 52 52 53 53 53 53 54 54 55 56 55 55 54 54 53
46 48 50 50 50 50 50 50 50 50 50 50 50 50 50 50 51 51 51 52 52 53 54 54 54 55 55 56 55 54 53 52
44 47 48 50 51 51 50 50 50 50 49 49 49 50 50 50 50 51 52 53 54 54 55 56 56 56 56 56 53 52 51 50
34 43 46 48 49 51 51 50 50 50 49 49 49 50 50 50 51 52 53 54 55 56 56 56 56 56 54 52 51 50 49 47
28 35 43 46 48 49 50 51 50 50 50 50 50 50 51 52 53 54 55 56 56 56 56 55 53 52 51 49 49 47 46 41
29 29 34 42 46 48 50 51 51 50 49 50 51 52 52 53 53 53 53 53 51 50 49 48 47 46 45 45 44 42 39 36
30 30 33 43 48 49 51 51 52 51 51 51 51 51 51 51 50 49 47 46 45 44 44 43 41 38 38 37 36 34 32 30